Location: Bogotá
(4.6533°N, 74.0837°W)
Time: 14:41:07
(UTC+00:00)

ISS - Pass Details

Date: 08 July 2025
Orbit: 413 x 417 km, 51.6° (Epoch: 13 July)

Event Time Altitude Azimuth Distance (km) Brightness Sun altitude
Rises 00:27:28 0° 245° (WSW) 2,336 0.6 -17.9°
Reaches altitude 10° 00:30:12 10° 269° (W) 1,473 0.0 -18.5°
Maximum altitude 00:32:12 15° 307° (NW) 1,200 -0.4 -18.9°
Drops below altitude 10° 00:34:13 10° 345° (NNW) 1,471 -0.5 -19.4°
Sets 00:36:56 0° 9° (N) 2,330 0.2 -20.0°
